[[{"header":{"parameterUnit":"m.s-1","parameterCategory":1,"la1":30.2991,"la2":30.254,"lo1":-89.0895,"lo2":-89.0444,"dy":0.0017,"dx":0.0017,"nx":28,"ny":28,"refTime":"2026-01-31T03:00:00:Z","depth":0,"parameterNumber":2,"parameterNumberName":"U-component_of_WINDS"},"data":[0,0,0,0,0,0,0,0,0,0,0,0,0,0,0,0,0,0,0,0,0,0,0,0,0,0,0,0,0,0,0,0,0,0,0,0,0,0,0,0,0,0,0,0,0,0,0,0,0,0,0,0,0,0,0,0,0,0,1.8904,1.8904,0,1.8928,1.8929,1.8929,1.892,1.8919,1.8919,1.8918,1.8945,1.8946,1.8947,0,0,0,0,0,0,0,0,0,0,0,0,0,1.885,1.8851,1.8903,1.8904,1.8904,1.8928,1.8929,1.8929,1.892,1.8919,1.8919,1.8918,1.8944,1.8946,1.8947,0,0,0,0,0,0,0,0,0,0,0,0,0,1.8874,1.8851,1.8903,1.8902,1.8903,1.8928,1.8929,1.8929,1.892,1.8919,1.8918,1.8918,1.8944,1.8946,1.8948,1.8976,0,0,1.8953,1.8954,0,0,0,0,0,0,0,0,1.8873,1.8876,1.8902,1.8903,1.8903,1.892,1.892,1.8945,1.892,1.8913,1.8918,1.8917,1.8937,1.894,1.8946,1.8977,1.8978,1.8953,1.8955,1.8955,1.8956,0,0,0,0,0,0,0,1.8871,1.8875,1.8913,1.8903,1.8903,1.8902,1.8904,1.8924,1.893,1.8914,1.8913,1.8916,1.8937,1.8945,1.8947,1.8979,1.8953,1.8955,1.8956,1.8957,1.9036,1.9037,0,0,0,0,0,0,1.8869,1.8874,1.8913,1.8914,1.8885,1.8903,1.8906,1.8915,1.893,1.8931,1.8917,1.8916,1.8942,1.8945,1.8948,1.8983,1.8955,1.8957,1.8958,1.9035,1.9037,1.9038,0,0,0,0,0,0,1.8868,1.8873,1.8912,1.8894,1.8899,1.8905,1.8916,1.8916,1.8923,1.8932,1.8933,1.8923,1.8941,1.8945,1.8969,1.8983,1.8958,1.896,1.9034,1.9036,1.9037,1.9052,0,0,0,0,0,0,1.8866,1.8872,1.8882,1.8894,1.89,1.8932,1.8917,1.8917,1.8927,1.8925,1.8938,1.8939,1.8941,1.8967,1.8971,1.8986,1.8961,1.9033,1.9035,1.9037,1.9051,1.9054,1.9057,0,0,0,0,0,1.8865,1.8886,1.8883,1.8888,1.8912,1.8933,1.8936,1.8937,1.8928,1.8938,1.8944,1.8939,1.8982,1.8969,1.8974,1.8989,1.9032,1.9034,1.9036,1.9049,1.9053,1.9057,0,0,0,0,0,0,1.8875,1.8887,1.8884,1.8909,1.892,1.8931,1.8944,1.8941,1.8955,1.8953,1.8954,1.8957,1.8982,1.8989,1.8975,1.9019,1.9005,1.9009,1.9013,1.9018,1.9021,1.9018,1.8963,0,0,0,0,0,1.8881,1.8896,1.8906,1.8927,1.8933,1.8938,1.8947,1.8947,1.8958,1.8962,1.897,1.8982,1.8998,1.9008,1.9023,1.9052,1.9055,1.9065,1.9068,1.9071,1.9074,1.909,1.9095,1.9045,1.9045,1.9045,0,0,1.8892,1.89,1.8909,1.8929,1.8938,1.8954,1.8942,1.8959,1.8971,1.8965,1.8988,1.8995,1.9008,1.9035,1.9047,1.9041,1.9089,1.9074,1.9076,1.9077,1.9093,1.9098,1.9102,1.9047,1.9046,1.9046,0,0,1.892,1.8928,1.8947,1.8956,1.8969,1.8972,1.8977,1.8989,1.8993,1.9016,1.9013,1.9028,1.9055,1.9065,1.9074,1.9109,1.9104,1.9114,1.9131,1.9147,1.9151,1.9154,1.9167,1.9172,1.9117,1.9117,1.9117,0,1.8932,1.8956,1.8957,1.8975,1.8985,1.898,1.9,1.9009,1.9027,1.9034,1.9026,1.9062,1.907,1.91,1.9108,1.9116,1.9122,1.9111,1.915,1.9154,1.9157,1.9169,1.9174,1.9118,1.9117,1.9117,1.9117,0,1.897,1.8987,1.9001,1.9018,1.9029,1.9048,1.9053,1.9065,1.9065,1.907,1.9094,1.9105,1.9123,1.913,1.913,1.916,1.9156,1.915,1.9136,1.9163,1.9174,1.9179,1.9119,1.9119,1.9118,1.9118,0,0,1.9004,1.9023,1.9028,1.9036,1.9051,1.9065,1.9085,1.9102,1.9112,1.9125,1.9142,1.9166,1.9161,1.9171,1.9172,1.9186,1.9214,1.9179,1.9179,1.9185,1.9249,1.9253,1.9258,1.9212,1.9213,1.9214,1.9248,0,1.9033,1.9067,1.907,1.91,1.9117,1.9114,1.9132,1.9143,1.9149,1.9164,1.9171,1.9188,1.918,1.9186,1.92,1.9208,1.9227,1.9205,1.9228,1.9229,1.9224,1.9264,1.9268,1.93,1.9252,1.9253,1.9254,0,1.9071,1.9086,1.9118,1.9132,1.9139,1.9154,1.9171,1.9186,1.92,1.9203,1.9215,1.9215,1.9237,1.9224,1.9254,1.9239,1.9249,1.9255,1.9256,1.9257,1.9242,1.9266,1.931,1.9314,1.9261,1.926,1.926,0,1.9092,1.912,1.9143,1.915,1.9167,1.9179,1.9186,1.92,1.921,1.9226,1.9233,1.9251,1.9261,1.9275,1.928,1.927,1.9311,1.9298,1.9314,1.9314,1.9322,1.9321,1.9367,1.9329,1.9329,1.9329,1.9329,0,1.9124,1.9144,1.9153,1.9167,1.919,1.9194,1.9217,1.9224,1.9236,1.9252,1.9252,1.9268,1.9274,1.9291,1.9295,1.932,1.9325,1.9328,1.9329,1.9328,1.9327,1.9333,1.9331,1.933,1.933,1.933,1.933,0,1.9151,1.9158,1.9183,1.9198,1.9202,1.9218,1.9231,1.9245,1.9252,1.9273,1.9278,1.9288,1.9308,1.9315,1.934,1.9343,1.9371,1.9371,1.9366,1.9366,1.9382,1.9381,1.9433,1.944,1.9399,1.9399,1.94,0,1.917,1.9186,1.9202,1.9213,1.9222,1.9239,1.925,1.9256,1.9268,1.9286,1.9298,1.9318,1.9334,1.9367,1.9377,1.9396,1.9396,1.9413,1.9398,1.9397,1.9396,1.9394,1.9396,1.9415,1.9416,1.9416,1.9416,0,1.9204,1.9207,1.9223,1.9241,1.9255,1.9269,1.9283,1.9292,1.93,1.9314,1.9334,1.9347,1.9372,1.9392,1.9412,1.9421,1.942,1.9421,1.9426,1.9424,1.9421,1.9423,1.9373,1.9419,1.9419,1.9419,1.9419,1.9419,1.9227,1.9241,1.9256,1.9274,1.9285,1.9299,1.9313,1.9322,1.9339,1.936,1.9363,1.9385,1.9401,1.9427,1.9438,1.9456,1.9451,1.9458,1.946,1.9461,1.9462,1.9419,1.946,1.946,1.946,1.946,1.9459,0,1.9261,1.927,1.9287,1.9307,1.9322,1.932,1.9336,1.9349,1.9368,1.9383,1.9399,1.9424,1.9444,1.9457,1.9477,1.9489,1.949,1.9495,1.9493,1.9496,1.9465,1.9459,1.9494,1.9494,1.9494,1.9494,1.9494,1.9494,1.928,1.9303,1.9308,1.9338,1.9348,1.937,1.9379,1.9392,1.9404,1.9431,1.9448,1.9456,1.947,1.9492,1.9511,1.9514,1.9522,1.9527,1.953,1.9501,1.9497,1.9494,1.9488,1.9529,1.9529,1.9558,1.9559,1.9559]},{"header":{"parameterUnit":"m.s-1","parameterCategory":1,"la1":30.2991,"la2":30.254,"lo1":-89.0895,"lo2":-89.0444,"dy":0.0017,"dx":0.0017,"nx":28,"ny":28,"refTime":"2026-01-31T03:00:00:Z","depth":0,"parameterNumber":3,"parameterNumberName":"V-component_of_WINDS"},"data":[0,0,0,0,0,0,0,0,0,0,0,0,0,0,0,0,0,0,0,0,0,0,0,0,0,0,0,0,0,0,0,0,0,0,0,0,0,0,0,0,0,0,0,0,0,0,0,0,0,0,0,0,0,0,0,0,0,0,-6.1737,-6.1739,0,-6.1927,-6.193,-6.1932,-6.1867,-6.1863,-6.1858,-6.1855,-6.2042,-6.2051,-6.206,0,0,0,0,0,0,0,0,0,0,0,0,0,-6.1313,-6.1322,-6.1737,-6.174,-6.1742,-6.1927,-6.193,-6.1932,-6.1868,-6.1862,-6.1857,-6.1853,-6.2039,-6.205,-6.206,0,0,0,0,0,0,0,0,0,0,0,0,0,-6.15,-6.1324,-6.1737,-6.1732,-6.1734,-6.1927,-6.193,-6.1933,-6.1869,-6.1862,-6.1856,-6.185,-6.2036,-6.2049,-6.2062,-6.2269,0,0,-6.2102,-6.2108,0,0,0,0,0,0,0,0,-6.1489,-6.1515,-6.173,-6.1733,-6.1735,-6.1867,-6.1849,-6.2045,-6.187,-6.1817,-6.1854,-6.1847,-6.1989,-6.2005,-6.2054,-6.2277,-6.2285,-6.2104,-6.2112,-6.2117,-6.2121,0,0,0,0,0,0,0,-6.1476,-6.1507,-6.1812,-6.1734,-6.1736,-6.1719,-6.1739,-6.1886,-6.1935,-6.1821,-6.1817,-6.1841,-6.1988,-6.2042,-6.2058,-6.2288,-6.2103,-6.2115,-6.2123,-6.2128,-6.2693,-6.27,0,0,0,0,0,0,-6.1463,-6.1496,-6.1806,-6.1818,-6.1594,-6.1732,-6.1754,-6.1831,-6.1933,-6.1943,-6.1846,-6.1837,-6.2022,-6.2043,-6.2065,-6.2316,-6.2117,-6.213,-6.2137,-6.2686,-6.2695,-6.2702,0,0,0,0,0,0,-6.1454,-6.1491,-6.1798,-6.1656,-6.1694,-6.1746,-6.1833,-6.1838,-6.1891,-6.1952,-6.196,-6.1892,-6.2018,-6.2046,-6.222,-6.2322,-6.2136,-6.2148,-6.2678,-6.2689,-6.2699,-6.282,0,0,0,0,0,0,-6.1442,-6.1489,-6.1569,-6.1659,-6.1702,-6.1952,-6.1839,-6.1846,-6.1915,-6.1905,-6.1997,-6.2006,-6.2015,-6.22,-6.2233,-6.2337,-6.2158,-6.2669,-6.2683,-6.2695,-6.2807,-6.2833,-6.2855,0,0,0,0,0,-6.1428,-6.1593,-6.1573,-6.1611,-6.1804,-6.1958,-6.1983,-6.1992,-6.1924,-6.2004,-6.2044,-6.2003,-6.2305,-6.2218,-6.2255,-6.2364,-6.2663,-6.2679,-6.2694,-6.2796,-6.2828,-6.2855,0,0,0,0,0,0,-6.151,-6.1604,-6.1583,-6.1783,-6.1864,-6.1947,-6.2049,-6.2025,-6.2124,-6.211,-6.2115,-6.2136,-6.2316,-6.2356,-6.2258,-6.2571,-6.2473,-6.2497,-6.2538,-6.2569,-6.2593,-6.258,-6.2169,0,0,0,0,0,-6.1552,-6.1672,-6.1747,-6.1915,-6.1957,-6.1997,-6.2064,-6.2065,-6.2147,-6.218,-6.2232,-6.2312,-6.2425,-6.2498,-6.2605,-6.2812,-6.2832,-6.2905,-6.2929,-6.2949,-6.297,-6.3085,-6.3119,-6.2754,-6.2754,-6.2754,0,0,-6.1639,-6.1705,-6.178,-6.1934,-6.1996,-6.212,-6.2025,-6.2158,-6.225,-6.2199,-6.2368,-6.2409,-6.2498,-6.269,-6.2777,-6.273,-6.3075,-6.2969,-6.2984,-6.2995,-6.3104,-6.3139,-6.317,-6.2765,-6.2763,-6.2761,0,0,-6.1861,-6.1923,-6.2072,-6.2138,-6.2235,-6.226,-6.2296,-6.2384,-6.2411,-6.2581,-6.2547,-6.2653,-6.2847,-6.2914,-6.2973,-6.3223,-6.3191,-6.3258,-6.3385,-6.3497,-6.3526,-6.3552,-6.3643,-6.3676,-6.3278,-6.3278,-6.3278,0,-6.1956,-6.2143,-6.2151,-6.2289,-6.2359,-6.2322,-6.2473,-6.2535,-6.2661,-6.2709,-6.2655,-6.29,-6.2957,-6.3166,-6.3228,-6.3275,-6.3317,-6.3248,-6.3522,-6.3547,-6.3571,-6.3659,-6.3693,-6.3286,-6.3285,-6.3284,-6.3284,0,-6.2256,-6.2386,-6.2494,-6.2622,-6.2703,-6.2846,-6.2876,-6.2957,-6.2951,-6.2982,-6.3156,-6.3224,-6.3346,-6.3395,-6.3388,-6.3603,-6.3571,-6.352,-6.3422,-6.3614,-6.3696,-6.373,-6.3297,-6.3294,-6.3292,-6.329,0,0,-6.2535,-6.2668,-6.2707,-6.2766,-6.2872,-6.2971,-6.3113,-6.3236,-6.3306,-6.3394,-6.3514,-6.3681,-6.3635,-6.3702,-6.3702,-6.38,-6.3998,-6.3737,-6.3739,-6.3785,-6.4242,-6.4283,-6.4321,-6.3977,-6.3983,-6.3988,-6.4236,0,-6.2768,-6.3021,-6.3034,-6.3264,-6.3385,-6.3353,-6.3477,-6.3555,-6.3588,-6.3694,-6.3729,-6.3849,-6.3777,-6.3818,-6.3913,-6.3954,-6.409,-6.3936,-6.4088,-6.4094,-6.407,-6.4364,-6.4407,-6.4637,-6.4268,-6.4273,-6.4277,0,-6.3073,-6.3176,-6.3419,-6.3511,-6.3562,-6.3674,-6.3789,-6.389,-6.3978,-6.3995,-6.4072,-6.406,-6.4205,-6.4102,-6.4302,-6.4197,-6.426,-6.4289,-6.4298,-6.4314,-6.4199,-6.439,-6.471,-6.4746,-6.4327,-6.4323,-6.432,0,-6.3256,-6.3454,-6.3626,-6.3677,-6.3787,-6.3867,-6.3916,-6.3998,-6.4072,-6.4171,-6.4219,-6.4332,-6.4395,-6.4483,-6.4501,-6.4424,-6.4703,-6.46,-6.4721,-6.4721,-6.4783,-6.4779,-6.512,-6.482,-6.4819,-6.4818,-6.4818,0,-6.3516,-6.3666,-6.371,-6.3816,-6.3984,-6.3997,-6.4163,-6.4206,-6.428,-6.4393,-6.437,-6.4476,-6.4493,-6.4603,-6.4617,-6.4783,-6.481,-6.4828,-6.483,-6.4832,-6.483,-6.4874,-6.486,-6.4827,-6.4825,-6.4824,-6.4822,0,-6.3748,-6.3784,-6.397,-6.4061,-6.4087,-6.4208,-6.4284,-6.4386,-6.4417,-6.4561,-6.4595,-6.4644,-6.4773,-6.4799,-6.495,-6.496,-6.5158,-6.5142,-6.513,-6.5129,-6.525,-6.5239,-6.5633,-6.5686,-6.5349,-6.5352,-6.5354,0,-6.3913,-6.4029,-6.4134,-6.421,-6.4265,-6.4386,-6.4463,-6.448,-6.456,-6.4671,-6.4759,-6.4886,-6.4989,-6.5196,-6.5243,-6.5359,-6.5348,-6.5478,-6.5365,-6.5364,-6.5354,-6.5348,-6.536,-6.55,-6.5504,-6.5507,-6.5509,0,-6.4203,-6.4216,-6.4328,-6.4449,-6.4542,-6.4636,-6.4726,-6.4788,-6.4818,-6.4909,-6.5043,-6.5123,-6.5279,-6.5406,-6.5523,-6.5571,-6.5546,-6.5545,-6.5579,-6.5583,-6.5572,-6.5583,-6.5191,-6.5536,-6.5533,-6.5531,-6.553,-6.5529,-6.4408,-6.4512,-6.4603,-6.473,-6.48,-6.4886,-6.4987,-6.5033,-6.5145,-6.5277,-6.5279,-6.5426,-6.5511,-6.5666,-6.5722,-6.5836,-6.5795,-6.5844,-6.5857,-6.587,-6.5883,-6.5553,-6.5857,-6.5856,-6.5855,-6.5855,-6.5854,0,-6.4699,-6.4758,-6.4875,-6.5004,-6.5104,-6.5074,-6.5173,-6.5258,-6.5388,-6.5472,-6.5575,-6.5729,-6.5853,-6.5911,-6.6033,-6.6113,-6.6105,-6.6144,-6.614,-6.6152,-6.5911,-6.587,-6.6149,-6.6149,-6.6149,-6.6149,-6.6149,-6.6149,-6.4863,-6.5037,-6.5061,-6.527,-6.5326,-6.5472,-6.5532,-6.561,-6.5678,-6.5853,-6.5957,-6.5995,-6.6069,-6.6197,-6.6308,-6.6322,-6.6369,-6.6415,-6.6424,-6.6198,-6.6168,-6.614,-6.6102,-6.6425,-6.6425,-6.6655,-6.6658,-6.6659]}]]